Location: Chevoux
(46.3801°N, 4.9476°E)
Time: 16:20:45
(UTC+00:00)

Cosmos 494 Rocket - Pass Details

Date: 28 January 2021
Orbit: 742 x 771 km, 74.1° (Epoch: 28 February)

Event Time Altitude Azimuth Distance (km) Brightness Sun altitude
Rises 18:34:35 0° 342° (NNW) 3,202 7.4 -20.0°
Reaches altitude 10° 18:37:01 10° 347° (NNW) 2,278 6.5 -20.4°
Maximum altitude 18:42:02 50° 63° (ENE) 958 4.1 -21.2°
Enters shadow 18:42:30 48° 81° (E) 976 4.1 -21.3°
